Home   Weather   Apolda   Past weeks

Flag for Germany Past Weather in Apolda, Thuringia, Germany — Yesterday and Last 2 Weeks

Now
64 °F

Thundershowers. Passing clouds.


Feels Like: 64 °F
Forecast: 55 / 69 °F
Wind: 12 mph from Southwest

Location: Erfurt-Bindersleben

Current Time: Jul 23, 2017 at 4:59:47 am

Latest Report: Jul 23, 2017 at 4:20 am


Visibility: N/A

Pressure: 29.89 "Hg

Humidity: 83%

Dew Point: 59 °F

Location of ApoldaLocation

Past Weather in Apolda — Graph

°F

Apolda Temperature Yesterday

Maximum temperature yesterday: 79 °F (at 3:50 pm)
Minimum temperature yesterday: 61 °F (at 4:50 am)
Average temperature yesterday: 69 °F

High & Low Weather Summary for the Past Weeks

 TemperatureHumidityPressure
High90 °F (Jul 19, 3:50 pm)100% (Jul 10, 4:50 am)30.24 "Hg (Jul 10, 4:50 am)
Low45 °F (Jul 13, 4:50 am)29% (Jul 19, 4:50 pm)29.71 "Hg (Jul 12, 5:50 pm)
Average66 °F73%30.00 "Hg
* Reported Jul 8 2:20 am — Jul 23 2:50 am, Apolda. Weather by CustomWeather, © 2017

Note: Actual official high and low records may vary slightly from our data, if they occured in-between our weather recording intervals... More about our weather records

Advertising

Apolda Weather History for the Previous 24 Hours

Scroll right to see more
 ConditionsComfort  
Time TempWeatherWind HumidityBarometerVisibility
2:50 am
Sun, Jul 23
64 °FClear.9 mph78%29.89 "Hg10 mi
2:20 am66 °FClear.9 mph73%29.89 "Hg10 mi
1:50 am66 °FClear.9 mph73%29.92 "Hg10 mi
1:20 am64 °FClear.9 mph78%29.92 "Hg10 mi
12:50 am66 °FClear.8 mph73%29.92 "Hg10 mi
12:20 am66 °FClear.8 mph78%29.92 "Hg10 mi
11:50 pm
Sat, Jul 22
68 °FClear.8 mph73%29.92 "Hg10 mi
11:20 pm68 °FClear.6 mph73%29.95 "Hg10 mi
10:50 pm68 °FClear.6 mph73%29.95 "Hg10 mi
10:20 pm72 °FClear.5 mph65%29.95 "Hg10 mi
9:50 pm72 °FClear.2 mph65%29.95 "Hg10 mi
9:20 pm73 °FClear.2 mph61%29.95 "Hg10 mi
8:50 pm73 °FSunny.5 mph65%29.92 "Hg10 mi
8:20 pm75 °FSunny.7 mph57%29.92 "Hg10 mi
7:50 pm77 °FSunny.8 mph57%29.92 "Hg10 mi
7:20 pm79 °FPartly sunny.8 mph51%29.92 "HgN/A
6:50 pm77 °FBroken clouds.8 mph57%29.92 "HgN/A
6:20 pm75 °FSunny.8 mph57%29.92 "Hg10 mi
5:50 pm77 °FPassing clouds.7 mph57%29.92 "HgN/A
5:20 pm79 °FPassing clouds.9 mph51%29.92 "HgN/A
4:50 pm79 °FPassing clouds.8 mph51%29.92 "HgN/A
4:20 pm79 °FScattered clouds.7 mph51%29.92 "HgN/A
3:50 pm79 °FScattered clouds.9 mph51%29.92 "HgN/A
2:50 pm77 °FPassing clouds.8 mph57%29.95 "HgN/A
2:20 pm75 °FPassing clouds.8 mph61%29.95 "HgN/A
1:50 pm73 °FScattered clouds.7 mph65%29.95 "HgN/A
1:20 pm70 °FPartly sunny.8 mph78%29.95 "HgN/A
12:50 pm68 °FPartly sunny.8 mph78%29.95 "HgN/A
12:20 pm68 °FBroken clouds.8 mph78%29.95 "HgN/A
11:50 am68 °FBroken clouds.8 mph78%29.95 "HgN/A
11:20 am68 °FBroken clouds.7 mph78%29.95 "HgN/A
10:50 am66 °FBroken clouds.7 mph88%29.95 "HgN/A
10:29 am66 °FPartly sunny.7 mph88%29.95 "HgN/A
10:20 am66 °FPartly sunny.6 mph88%29.95 "HgN/A
9:50 am66 °FPartly sunny.5 mph88%29.95 "HgN/A
9:34 am64 °FPartly sunny.5 mph94%29.95 "HgN/A
8:50 am63 °FThundershowers. Partly sunny.6 mph100%29.92 "HgN/A
8:20 am63 °FThundershowers. Partly sunny.9 mph94%29.92 "HgN/A
7:50 am63 °FLight rain. Partly sunny.13 mph94%29.89 "HgN/A
6:50 am61 °FSunny.8 mph94%29.89 "Hg10 mi
6:20 am63 °FSunny.1 mph83%29.89 "Hg10 mi
5:50 am63 °FPassing clouds.5 mph83%29.89 "HgN/A
5:20 am61 °FPassing clouds.7 mph88%29.89 "HgN/A
4:50 am61 °FClear.8 mph88%29.89 "Hg10 mi
4:20 am64 °FPassing clouds.3 mph78%29.89 "HgN/A
Weather by CustomWeather, © 2017

See weather overviewHow to use our weather pages